owner,sensor,date,latitude,longitude,vertical_datum,wind_speed,wind_to_direction,wind_speed_of_gust,qcFlag 
ADCP,ioos:station:wmo:42361:1,2017-01-01T00:30:00Z,27.5500,-92.4900,122.0,12.0,161.0,99.0,'11111222,11111222,11144222' 
ADCP,ioos:station:wmo:42361:1,2017-01-01T01:30:00Z,27.5500,-92.4900,122.0,11.8,165.0,99.0,'11111222,11111222,11144222' 
ADCP,ioos:station:wmo:42361:1,2017-01-01T02:30:00Z,27.5500,-92.4900,122.0,12.2,168.0,99.0,'11111222,11111222,11144222' 
ADCP,ioos:station:wmo:42361:1,2017-01-01T03:30:00Z,27.5500,-92.4900,122.0,12.3,160.0,99.0,'11111222,11111222,11144222' 
ADCP,ioos:station:wmo:42361:1,2017-01-01T04:30:00Z,27.5500,-92.4900,122.0,11.5,160.0,99.0,'11111222,11111222,11144222' 
ADCP,ioos:station:wmo:42361:1,2017-01-01T05:30:00Z,27.5500,-92.4900,122.0,11.3,160.0,99.0,'11111222,11111222,11144222' 
ADCP,ioos:station:wmo:42361:1,2017-01-01T06:30:00Z,27.5500,-92.4900,122.0,10.4,160.0,99.0,'11111222,11111222,11144222' 
ADCP,ioos:station:wmo:42361:1,2017-01-01T07:30:00Z,27.5500,-92.4900,122.0,12.1,154.0,99.0,'11111222,11111222,11144222' 
ADCP,ioos:station:wmo:42361:1,2017-01-01T08:30:00Z,27.5500,-92.4900,122.0,13.0,160.0,99.0,'11111222,11111222,11144222' 
ADCP,ioos:station:wmo:42361:1,2017-01-01T09:30:00Z,27.5500,-92.4900,122.0,12.8,160.0,99.0,'11111222,11111222,11144222' 
ADCP,ioos:station:wmo:42361:1,2017-01-01T10:30:00Z,27.5500,-92.4900,122.0,11.9,160.0,99.0,'11111222,11111222,11144222' 
ADCP,ioos:station:wmo:42361:1,2017-01-01T11:30:00Z,27.5500,-92.4900,122.0,10.4,160.0,99.0,'11111222,11111222,11144222' 
ADCP,ioos:station:wmo:42361:1,2017-01-01T12:30:00Z,27.5500,-92.4900,122.0,10.5,160.0,99.0,'11111222,11111222,11144222' 
ADCP,ioos:station:wmo:42361:1,2017-01-01T13:30:00Z,27.5500,-92.4900,122.0,10.8,154.0,99.0,'11111222,11111222,11144222' 
ADCP,ioos:station:wmo:42361:1,2017-01-01T14:30:00Z,27.5500,-92.4900,122.0,11.5,150.0,99.0,'11111222,11111222,11144222' 
ADCP,ioos:station:wmo:42361:1,2017-01-01T15:30:00Z,27.5500,-92.4900,122.0,11.1,150.0,99.0,'11111222,11111222,11144222' 
ADCP,ioos:station:wmo:42361:1,2017-01-01T16:30:00Z,27.5500,-92.4900,122.0,11.3,146.0,99.0,'11111222,11111222,11144222' 
ADCP,ioos:station:wmo:42361:1,2017-01-01T17:30:00Z,27.5500,-92.4900,122.0,10.4,150.0,99.0,'11111222,11111222,11144222' 
ADCP,ioos:station:wmo:42361:1,2017-01-01T18:30:00Z,27.5500,-92.4900,122.0,10.0,145.0,99.0,'11111222,11111222,11144222' 
ADCP,ioos:station:wmo:42361:1,2017-01-01T19:30:00Z,27.5500,-92.4900,122.0,9.8,150.0,99.0,'11111222,11111222,11144222' 
ADCP,ioos:station:wmo:42361:1,2017-01-01T20:30:00Z,27.5500,-92.4900,122.0,9.7,150.0,99.0,'11111222,11111222,11144222' 
ADCP,ioos:station:wmo:42361:1,2017-01-01T21:30:00Z,27.5500,-92.4900,122.0,9.7,151.0,99.0,'11111222,11111222,11144222' 
ADCP,ioos:station:wmo:42361:1,2017-01-01T22:30:00Z,27.5500,-92.4900,122.0,9.3,158.0,99.0,'11111222,11111222,11144222' 
ADCP,ioos:station:wmo:42361:1,2017-01-01T23:30:00Z,27.5500,-92.4900,122.0,11.7,157.0,99.0,'11111222,11111222,11144222' 
ADCP,ioos:station:wmo:42361:1,2017-01-02T00:30:00Z,27.5500,-92.4900,122.0,13.6,143.0,99.0,'11111222,11111222,11144222' 
ADCP,ioos:station:wmo:42361:1,2017-01-02T01:30:00Z,27.5500,-92.4900,122.0,17.2,143.0,99.0,'11111222,11111222,11144222' 
ADCP,ioos:station:wmo:42361:1,2017-01-02T02:30:00Z,27.5500,-92.4900,122.0,14.8,133.0,99.0,'11111222,11111222,11144222' 
ADCP,ioos:station:wmo:42361:1,2017-01-02T03:30:00Z,27.5500,-92.4900,122.0,15.3,130.0,99.0,'11111222,11111222,11144222' 
ADCP,ioos:station:wmo:42361:1,2017-01-02T04:30:00Z,27.5500,-92.4900,122.0,9.9,143.0,99.0,'11111222,11111222,11144222' 
ADCP,ioos:station:wmo:42361:1,2017-01-02T05:30:00Z,27.5500,-92.4900,122.0,9.9,137.0,99.0,'11111222,11111222,11144222' 
ADCP,ioos:station:wmo:42361:1,2017-01-02T06:30:00Z,27.5500,-92.4900,122.0,11.0,139.0,99.0,'11111222,11111222,11144222' 
ADCP,ioos:station:wmo:42361:1,2017-01-02T07:30:00Z,27.5500,-92.4900,122.0,11.3,140.0,99.0,'11111222,11111222,11144222' 
ADCP,ioos:station:wmo:42361:1,2017-01-02T08:30:00Z,27.5500,-92.4900,122.0,9.8,140.0,99.0,'11111222,11111222,11144222' 
ADCP,ioos:station:wmo:42361:1,2017-01-02T09:30:00Z,27.5500,-92.4900,122.0,10.3,140.0,99.0,'11111222,11111222,11144222' 
ADCP,ioos:station:wmo:42361:1,2017-01-02T10:30:00Z,27.5500,-92.4900,122.0,10.5,140.0,99.0,'11111222,11111222,11144222' 
ADCP,ioos:station:wmo:42361:1,2017-01-02T11:30:00Z,27.5500,-92.4900,122.0,11.2,131.0,99.0,'11111222,11111222,11144222' 
ADCP,ioos:station:wmo:42361:1,2017-01-02T12:30:00Z,27.5500,-92.4900,122.0,12.3,136.0,99.0,'11111222,11111222,11144222' 
ADCP,ioos:station:wmo:42361:1,2017-01-02T13:30:00Z,27.5500,-92.4900,122.0,12.6,140.0,99.0,'11111222,11111222,11144222' 
ADCP,ioos:station:wmo:42361:1,2017-01-02T14:30:00Z,27.5500,-92.4900,122.0,13.8,140.0,99.0,'11111222,11111222,11144222' 
ADCP,ioos:station:wmo:42361:1,2017-01-02T15:30:00Z,27.5500,-92.4900,122.0,14.1,146.0,99.0,'11111222,11111222,11144222' 
ADCP,ioos:station:wmo:42361:1,2017-01-02T16:30:00Z,27.5500,-92.4900,122.0,14.5,156.0,99.0,'11111222,11111222,11144222' 
ADCP,ioos:station:wmo:42361:1,2017-01-02T17:30:00Z,27.5500,-92.4900,122.0,15.0,160.0,99.0,'11111222,11111222,11144222' 
ADCP,ioos:station:wmo:42361:1,2017-01-02T18:30:00Z,27.5500,-92.4900,122.0,14.4,164.0,99.0,'11111222,11111222,11144222' 
ADCP,ioos:station:wmo:42361:1,2017-01-02T19:30:00Z,27.5500,-92.4900,122.0,13.5,171.0,99.0,'11111222,11111222,11144222' 
ADCP,ioos:station:wmo:42361:1,2017-01-02T20:30:00Z,27.5500,-92.4900,122.0,13.1,181.0,99.0,'11111222,11111222,11144222' 
ADCP,ioos:station:wmo:42361:1,2017-01-02T21:30:00Z,27.5500,-92.4900,122.0,13.8,181.0,99.0,'11111222,11111222,11144222' 
ADCP,ioos:station:wmo:42361:1,2017-01-02T22:30:00Z,27.5500,-92.4900,122.0,12.8,190.0,99.0,'11111222,11111222,11144222' 
ADCP,ioos:station:wmo:42361:1,2017-01-02T23:30:00Z,27.5500,-92.4900,122.0,12.7,192.0,99.0,'11111222,11111222,11144222' 
ADCP,ioos:station:wmo:42361:1,2017-01-03T00:30:00Z,27.5500,-92.4900,122.0,10.9,231.0,99.0,'11111222,11111222,11144222' 
ADCP,ioos:station:wmo:42361:1,2017-01-03T01:30:00Z,27.5500,-92.4900,122.0,7.4,257.0,99.0,'11111222,11111222,11144222' 
ADCP,ioos:station:wmo:42361:1,2017-01-03T02:30:00Z,27.5500,-92.4900,122.0,4.0,291.0,99.0,'11111222,11111222,11144222' 
ADCP,ioos:station:wmo:42361:1,2017-01-03T03:30:00Z,27.5500,-92.4900,122.0,2.1,291.0,99.0,'11111222,11111222,11144222' 
ADCP,ioos:station:wmo:42361:1,2017-01-03T04:30:00Z,27.5500,-92.4900,122.0,0.0,0.0,99.0,'11111222,11111222,11144222' 
ADCP,ioos:station:wmo:42361:1,2017-01-03T05:30:00Z,27.5500,-92.4900,122.0,0.1,353.0,99.0,'11111222,11111222,11144222' 
ADCP,ioos:station:wmo:42361:1,2017-01-03T06:30:00Z,27.5500,-92.4900,122.0,0.1,12.0,99.0,'11111222,11111222,11144222' 
ADCP,ioos:station:wmo:42361:1,2017-01-03T07:30:00Z,27.5500,-92.4900,122.0,0.5,29.0,99.0,'11111222,11111222,11144222' 
ADCP,ioos:station:wmo:42361:1,2017-01-03T08:30:00Z,27.5500,-92.4900,122.0,2.2,262.0,99.0,'11111222,11111222,11144222' 
ADCP,ioos:station:wmo:42361:1,2017-01-03T09:30:00Z,27.5500,-92.4900,122.0,3.0,262.0,99.0,'11111222,11111222,11144222' 
ADCP,ioos:station:wmo:42361:1,2017-01-03T10:30:00Z,27.5500,-92.4900,122.0,3.8,270.0,99.0,'11111222,11111222,11144222' 
ADCP,ioos:station:wmo:42361:1,2017-01-03T11:30:00Z,27.5500,-92.4900,122.0,5.3,320.0,99.0,'11111222,11111222,11144222' 
ADCP,ioos:station:wmo:42361:1,2017-01-03T12:30:00Z,27.5500,-92.4900,122.0,4.8,325.0,99.0,'11111222,11111222,11144222' 
ADCP,ioos:station:wmo:42361:1,2017-01-03T13:30:00Z,27.5500,-92.4900,122.0,5.4,333.0,99.0,'11111222,11111222,11144222' 
ADCP,ioos:station:wmo:42361:1,2017-01-03T14:30:00Z,27.5500,-92.4900,122.0,3.7,354.0,99.0,'11111222,11111222,11144222' 
ADCP,ioos:station:wmo:42361:1,2017-01-03T15:30:00Z,27.5500,-92.4900,122.0,3.1,357.0,99.0,'11111222,11111222,11144222' 
ADCP,ioos:station:wmo:42361:1,2017-01-03T16:30:00Z,27.5500,-92.4900,122.0,0.5,1.0,99.0,'11111222,11111222,11144222' 
ADCP,ioos:station:wmo:42361:1,2017-01-03T17:30:00Z,27.5500,-92.4900,122.0,0.0,0.0,99.0,'11111222,11111222,11144222' 
ADCP,ioos:station:wmo:42361:1,2017-01-03T18:30:00Z,27.5500,-92.4900,122.0,0.5,336.0,99.0,'11111222,11111222,11144222' 
ADCP,ioos:station:wmo:42361:1,2017-01-03T19:30:00Z,27.5500,-92.4900,122.0,1.1,330.0,99.0,'11111222,11111222,11144222' 
ADCP,ioos:station:wmo:42361:1,2017-01-03T20:30:00Z,27.5500,-92.4900,122.0,2.8,283.0,99.0,'11111222,11111222,11144222' 
ADCP,ioos:station:wmo:42361:1,2017-01-03T21:30:00Z,27.5500,-92.4900,122.0,2.8,264.0,99.0,'11111222,11111222,11144222' 
ADCP,ioos:station:wmo:42361:1,2017-01-03T22:30:00Z,27.5500,-92.4900,122.0,3.4,268.0,99.0,'11111222,11111222,11144222' 
ADCP,ioos:station:wmo:42361:1,2017-01-03T23:30:00Z,27.5500,-92.4900,122.0,4.9,266.0,99.0,'11111222,11111222,11144222' 
ADCP,ioos:station:wmo:42361:1,2017-01-04T00:30:00Z,27.5500,-92.4900,122.0,5.7,268.0,99.0,'11111222,11111222,11144222' 
ADCP,ioos:station:wmo:42361:1,2017-01-04T01:30:00Z,27.5500,-92.4900,122.0,6.3,273.0,99.0,'11111222,11111222,11144222' 
ADCP,ioos:station:wmo:42361:1,2017-01-04T02:30:00Z,27.5500,-92.4900,122.0,6.6,272.0,99.0,'11111222,11111222,11144222' 
ADCP,ioos:station:wmo:42361:1,2017-01-04T03:30:00Z,27.5500,-92.4900,122.0,4.6,264.0,99.0,'11111222,11111222,11144222' 
ADCP,ioos:station:wmo:42361:1,2017-01-04T04:30:00Z,27.5500,-92.4900,122.0,5.1,266.0,99.0,'11111222,11111222,11144222' 
ADCP,ioos:station:wmo:42361:1,2017-01-04T05:30:00Z,27.5500,-92.4900,122.0,6.7,269.0,99.0,'11111222,11111222,11144222' 
ADCP,ioos:station:wmo:42361:1,2017-01-04T06:30:00Z,27.5500,-92.4900,122.0,9.4,284.0,99.0,'11111222,11111222,11144222' 
ADCP,ioos:station:wmo:42361:1,2017-01-04T07:30:00Z,27.5500,-92.4900,122.0,9.9,293.0,99.0,'11111222,11111222,11144222' 
ADCP,ioos:station:wmo:42361:1,2017-01-04T08:30:00Z,27.5500,-92.4900,122.0,8.7,308.0,99.0,'11111222,11111222,11144222' 
ADCP,ioos:station:wmo:42361:1,2017-01-04T09:30:00Z,27.5500,-92.4900,122.0,9.4,328.0,99.0,'11111222,11111222,11144222' 
ADCP,ioos:station:wmo:42361:1,2017-01-04T10:30:00Z,27.5500,-92.4900,122.0,10.9,335.0,99.0,'11111222,11111222,11144222' 
ADCP,ioos:station:wmo:42361:1,2017-01-04T11:30:00Z,27.5500,-92.4900,122.0,11.3,339.0,99.0,'11111222,11111222,11144222' 
ADCP,ioos:station:wmo:42361:1,2017-01-04T12:30:00Z,27.5500,-92.4900,122.0,10.5,340.0,99.0,'11111222,11111222,11144222' 
ADCP,ioos:station:wmo:42361:1,2017-01-04T13:30:00Z,27.5500,-92.4900,122.0,9.5,342.0,99.0,'11111222,11111222,11144222' 
ADCP,ioos:station:wmo:42361:1,2017-01-04T14:30:00Z,27.5500,-92.4900,122.0,8.8,343.0,99.0,'11111222,11111222,11144222' 
ADCP,ioos:station:wmo:42361:1,2017-01-04T15:30:00Z,27.5500,-92.4900,122.0,9.2,343.0,99.0,'11111222,11111222,11144222' 
ADCP,ioos:station:wmo:42361:1,2017-01-04T16:30:00Z,27.5500,-92.4900,122.0,8.1,352.0,99.0,'11111222,11111222,11144222' 
ADCP,ioos:station:wmo:42361:1,2017-01-04T17:30:00Z,27.5500,-92.4900,122.0,8.8,352.0,99.0,'11111222,11111222,11144222' 
ADCP,ioos:station:wmo:42361:1,2017-01-04T18:30:00Z,27.5500,-92.4900,122.0,8.4,354.0,99.0,'11111222,11111222,11144222' 
ADCP,ioos:station:wmo:42361:1,2017-01-04T19:30:00Z,27.5500,-92.4900,122.0,6.5,4.0,99.0,'11111222,11111222,11144222' 
ADCP,ioos:station:wmo:42361:1,2017-01-04T20:30:00Z,27.5500,-92.4900,122.0,6.5,359.0,99.0,'11111222,11111222,11144222' 
ADCP,ioos:station:wmo:42361:1,2017-01-04T21:30:00Z,27.5500,-92.4900,122.0,6.9,4.0,99.0,'11111222,11111222,11144222' 
ADCP,ioos:station:wmo:42361:1,2017-01-04T22:30:00Z,27.5500,-92.4900,122.0,6.2,6.0,99.0,'11111222,11111222,11144222' 
ADCP,ioos:station:wmo:42361:1,2017-01-04T23:30:00Z,27.5500,-92.4900,122.0,5.3,17.0,99.0,'11111222,11111222,11144222' 
ADCP,ioos:station:wmo:42361:1,2017-01-05T00:30:00Z,27.5500,-92.4900,122.0,5.5,16.0,99.0,'11111222,11111222,11144222' 
ADCP,ioos:station:wmo:42361:1,2017-01-05T01:30:00Z,27.5500,-92.4900,122.0,5.8,17.0,99.0,'11111222,11111222,11144222' 
ADCP,ioos:station:wmo:42361:1,2017-01-05T02:30:00Z,27.5500,-92.4900,122.0,4.6,44.0,99.0,'11111222,11111222,11144222' 
ADCP,ioos:station:wmo:42361:1,2017-01-05T03:30:00Z,27.5500,-92.4900,122.0,4.1,31.0,99.0,'11111222,11111222,11144222' 
ADCP,ioos:station:wmo:42361:1,2017-01-05T04:30:00Z,27.5500,-92.4900,122.0,4.0,36.0,99.0,'11111222,11111222,11144222' 
ADCP,ioos:station:wmo:42361:1,2017-01-05T05:30:00Z,27.5500,-92.4900,122.0,3.5,72.0,99.0,'11111222,11111222,11144222' 
ADCP,ioos:station:wmo:42361:1,2017-01-05T06:30:00Z,27.5500,-92.4900,122.0,4.2,90.0,99.0,'11111222,11111222,11144222' 
ADCP,ioos:station:wmo:42361:1,2017-01-05T07:30:00Z,27.5500,-92.4900,122.0,4.5,121.0,99.0,'11111222,11111222,11144222' 
ADCP,ioos:station:wmo:42361:1,2017-01-05T08:30:00Z,27.5500,-92.4900,122.0,5.6,139.0,99.0,'11111222,11111222,11144222' 
ADCP,ioos:station:wmo:42361:1,2017-01-05T09:30:00Z,27.5500,-92.4900,122.0,5.2,149.0,99.0,'11111222,11111222,11144222' 
ADCP,ioos:station:wmo:42361:1,2017-01-05T10:30:00Z,27.5500,-92.4900,122.0,6.5,146.0,99.0,'11111222,11111222,11144222' 
ADCP,ioos:station:wmo:42361:1,2017-01-05T11:30:00Z,27.5500,-92.4900,122.0,4.3,170.0,99.0,'11111222,11111222,11144222' 
ADCP,ioos:station:wmo:42361:1,2017-01-05T12:30:00Z,27.5500,-92.4900,122.0,4.0,163.0,99.0,'11111222,11111222,11144222' 
ADCP,ioos:station:wmo:42361:1,2017-01-05T13:30:00Z,27.5500,-92.4900,122.0,4.8,172.0,99.0,'11111222,11111222,11144222' 
ADCP,ioos:station:wmo:42361:1,2017-01-05T14:30:00Z,27.5500,-92.4900,122.0,5.1,181.0,99.0,'11111222,11111222,11144222' 
ADCP,ioos:station:wmo:42361:1,2017-01-05T15:30:00Z,27.5500,-92.4900,122.0,4.6,180.0,99.0,'11111222,11111222,11144222' 
ADCP,ioos:station:wmo:42361:1,2017-01-05T16:30:00Z,27.5500,-92.4900,122.0,4.2,175.0,99.0,'11111222,11111222,11144222' 
ADCP,ioos:station:wmo:42361:1,2017-01-05T17:30:00Z,27.5500,-92.4900,122.0,5.0,179.0,99.0,'11111222,11111222,11144222' 
ADCP,ioos:station:wmo:42361:1,2017-01-05T18:30:00Z,27.5500,-92.4900,122.0,5.8,179.0,99.0,'11111222,11111222,11144222' 
ADCP,ioos:station:wmo:42361:1,2017-01-05T19:30:00Z,27.5500,-92.4900,122.0,6.3,171.0,99.0,'11111222,11111222,11144222' 
ADCP,ioos:station:wmo:42361:1,2017-01-05T20:30:00Z,27.5500,-92.4900,122.0,6.6,183.0,99.0,'11111222,11111222,11144222' 
ADCP,ioos:station:wmo:42361:1,2017-01-05T21:30:00Z,27.5500,-92.4900,122.0,3.9,176.0,99.0,'11111222,11111222,11144222' 
ADCP,ioos:station:wmo:42361:1,2017-01-05T22:30:00Z,27.5500,-92.4900,122.0,2.7,164.0,99.0,'11111222,11111222,11144222' 
ADCP,ioos:station:wmo:42361:1,2017-01-05T23:30:00Z,27.5500,-92.4900,122.0,3.7,143.0,99.0,'11111222,11111222,11144222' 
ADCP,ioos:station:wmo:42361:1,2017-01-06T00:30:00Z,27.5500,-92.4900,122.0,4.1,140.0,99.0,'11111222,11111222,11144222' 
ADCP,ioos:station:wmo:42361:1,2017-01-06T01:30:00Z,27.5500,-92.4900,122.0,3.8,140.0,99.0,'11111222,11111222,11144222' 
ADCP,ioos:station:wmo:42361:1,2017-01-06T02:30:00Z,27.5500,-92.4900,122.0,4.6,136.0,99.0,'11111222,11111222,11144222' 
ADCP,ioos:station:wmo:42361:1,2017-01-06T03:30:00Z,27.5500,-92.4900,122.0,5.2,134.0,99.0,'11111222,11111222,11144222' 
ADCP,ioos:station:wmo:42361:1,2017-01-06T04:30:00Z,27.5500,-92.4900,122.0,6.6,130.0,99.0,'11111222,11111222,11144222' 
ADCP,ioos:station:wmo:42361:1,2017-01-06T05:30:00Z,27.5500,-92.4900,122.0,7.0,138.0,99.0,'11111222,11111222,11144222' 
ADCP,ioos:station:wmo:42361:1,2017-01-06T06:30:00Z,27.5500,-92.4900,122.0,8.2,135.0,99.0,'11111222,11111222,11144222' 
ADCP,ioos:station:wmo:42361:1,2017-01-06T07:30:00Z,27.5500,-92.4900,122.0,8.5,138.0,99.0,'11111222,11111222,11144222' 
ADCP,ioos:station:wmo:42361:1,2017-01-06T08:30:00Z,27.5500,-92.4900,122.0,8.8,141.0,99.0,'11111222,11111222,11144222' 
ADCP,ioos:station:wmo:42361:1,2017-01-06T09:30:00Z,27.5500,-92.4900,122.0,9.3,149.0,99.0,'11111222,11111222,11144222' 
ADCP,ioos:station:wmo:42361:1,2017-01-06T10:30:00Z,27.5500,-92.4900,122.0,9.3,147.0,99.0,'11111222,11111222,11144222' 
ADCP,ioos:station:wmo:42361:1,2017-01-06T11:30:00Z,27.5500,-92.4900,122.0,9.2,151.0,99.0,'11111222,11111222,11144222' 
ADCP,ioos:station:wmo:42361:1,2017-01-06T12:30:00Z,27.5500,-92.4900,122.0,8.3,158.0,99.0,'11111222,11111222,11144222' 
ADCP,ioos:station:wmo:42361:1,2017-01-06T13:30:00Z,27.5500,-92.4900,122.0,7.6,160.0,99.0,'11111222,11111222,11144222' 
ADCP,ioos:station:wmo:42361:1,2017-01-06T14:30:00Z,27.5500,-92.4900,122.0,6.4,165.0,99.0,'11111222,11111222,11144222' 
ADCP,ioos:station:wmo:42361:1,2017-01-06T15:30:00Z,27.5500,-92.4900,122.0,6.8,96.0,99.0,'11111222,11111222,11144222' 
ADCP,ioos:station:wmo:42361:1,2017-01-06T16:30:00Z,27.5500,-92.4900,122.0,17.8,339.0,99.0,'11111222,11111222,11144222' 
ADCP,ioos:station:wmo:42361:1,2017-01-06T17:30:00Z,27.5500,-92.4900,122.0,16.6,342.0,99.0,'11111222,11111222,11144222' 
ADCP,ioos:station:wmo:42361:1,2017-01-06T18:30:00Z,27.5500,-92.4900,122.0,16.1,344.0,99.0,'11111222,11111222,11144222' 
ADCP,ioos:station:wmo:42361:1,2017-01-06T19:30:00Z,27.5500,-92.4900,122.0,15.3,351.0,99.0,'11111222,11111222,11144222' 
ADCP,ioos:station:wmo:42361:1,2017-01-06T20:30:00Z,27.5500,-92.4900,122.0,14.2,358.0,99.0,'11111222,11111222,11144222' 
ADCP,ioos:station:wmo:42361:1,2017-01-06T21:30:00Z,27.5500,-92.4900,122.0,13.8,7.0,99.0,'11111222,11111222,11144222' 
ADCP,ioos:station:wmo:42361:1,2017-01-06T22:30:00Z,27.5500,-92.4900,122.0,12.8,349.0,99.0,'11111222,11111222,11144222' 
ADCP,ioos:station:wmo:42361:1,2017-01-06T23:30:00Z,27.5500,-92.4900,122.0,16.7,338.0,99.0,'11111222,11111222,11144222' 
ADCP,ioos:station:wmo:42361:1,2017-01-07T00:30:00Z,27.5500,-92.4900,122.0,18.2,340.0,99.0,'11111222,11111222,11144222' 
ADCP,ioos:station:wmo:42361:1,2017-01-07T01:30:00Z,27.5500,-92.4900,122.0,18.0,341.0,99.0,'11111222,11111222,11144222' 
ADCP,ioos:station:wmo:42361:1,2017-01-07T02:30:00Z,27.5500,-92.4900,122.0,17.8,338.0,99.0,'11111222,11111222,11144222' 
ADCP,ioos:station:wmo:42361:1,2017-01-07T03:30:00Z,27.5500,-92.4900,122.0,19.2,338.0,99.0,'11111222,11111222,11144222' 
ADCP,ioos:station:wmo:42361:1,2017-01-07T04:30:00Z,27.5500,-92.4900,122.0,19.0,340.0,99.0,'11111222,11111222,11144222' 
ADCP,ioos:station:wmo:42361:1,2017-01-07T05:30:00Z,27.5500,-92.4900,122.0,18.0,340.0,99.0,'11111222,11111222,11144222' 
ADCP,ioos:station:wmo:42361:1,2017-01-07T06:30:00Z,27.5500,-92.4900,122.0,18.2,338.0,99.0,'11111222,11111222,11144222' 
ADCP,ioos:station:wmo:42361:1,2017-01-07T07:30:00Z,27.5500,-92.4900,122.0,18.8,339.0,99.0,'11111222,11111222,11144222' 
ADCP,ioos:station:wmo:42361:1,2017-01-07T08:30:00Z,27.5500,-92.4900,122.0,19.1,338.0,99.0,'11111222,11111222,11144222' 
ADCP,ioos:station:wmo:42361:1,2017-01-07T09:30:00Z,27.5500,-92.4900,122.0,18.8,339.0,99.0,'11111222,11111222,11144222' 
ADCP,ioos:station:wmo:42361:1,2017-01-07T10:30:00Z,27.5500,-92.4900,122.0,18.7,338.0,99.0,'11111222,11111222,11144222' 
ADCP,ioos:station:wmo:42361:1,2017-01-07T11:30:00Z,27.5500,-92.4900,122.0,19.0,339.0,99.0,'11111222,11111222,11144222' 
ADCP,ioos:station:wmo:42361:1,2017-01-07T12:30:00Z,27.5500,-92.4900,122.0,19.0,339.0,99.0,'11111222,11111222,11144222' 
ADCP,ioos:station:wmo:42361:1,2017-01-07T13:30:00Z,27.5500,-92.4900,122.0,18.1,340.0,99.0,'11111222,11111222,11144222' 
ADCP,ioos:station:wmo:42361:1,2017-01-07T14:30:00Z,27.5500,-92.4900,122.0,18.6,348.0,99.0,'11111222,11111222,11144222' 
ADCP,ioos:station:wmo:42361:1,2017-01-07T15:30:00Z,27.5500,-92.4900,122.0,18.2,353.0,99.0,'11111222,11111222,11144222' 
ADCP,ioos:station:wmo:42361:1,2017-01-07T16:30:00Z,27.5500,-92.4900,122.0,17.8,353.0,99.0,'11111222,11111222,11144222' 
ADCP,ioos:station:wmo:42361:1,2017-01-07T17:30:00Z,27.5500,-92.4900,122.0,17.8,350.0,99.0,'11111222,11111222,11144222' 
ADCP,ioos:station:wmo:42361:1,2017-01-07T18:30:00Z,27.5500,-92.4900,122.0,17.3,347.0,99.0,'11111222,11111222,11144222' 
ADCP,ioos:station:wmo:42361:1,2017-01-07T19:30:00Z,27.5500,-92.4900,122.0,16.5,348.0,99.0,'11111222,11111222,11144222' 
ADCP,ioos:station:wmo:42361:1,2017-01-07T20:30:00Z,27.5500,-92.4900,122.0,15.4,349.0,99.0,'11111222,11111222,11144222' 
ADCP,ioos:station:wmo:42361:1,2017-01-07T21:30:00Z,27.5500,-92.4900,122.0,15.5,347.0,99.0,'11111222,11111222,11144222' 
ADCP,ioos:station:wmo:42361:1,2017-01-07T22:30:00Z,27.5500,-92.4900,122.0,15.2,348.0,99.0,'11111222,11111222,11144222' 
ADCP,ioos:station:wmo:42361:1,2017-01-07T23:30:00Z,27.5500,-92.4900,122.0,15.4,349.0,99.0,'11111222,11111222,11144222' 
ADCP,ioos:station:wmo:42361:1,2017-01-08T00:30:00Z,27.5500,-92.4900,122.0,15.0,350.0,99.0,'11111222,11111222,11144222' 
ADCP,ioos:station:wmo:42361:1,2017-01-08T01:30:00Z,27.5500,-92.4900,122.0,15.3,350.0,99.0,'11111222,11111222,11144222' 
ADCP,ioos:station:wmo:42361:1,2017-01-08T02:30:00Z,27.5500,-92.4900,122.0,15.6,352.0,99.0,'11111222,11111222,11144222' 
ADCP,ioos:station:wmo:42361:1,2017-01-08T03:30:00Z,27.5500,-92.4900,122.0,15.6,356.0,99.0,'11111222,11111222,11144222' 
ADCP,ioos:station:wmo:42361:1,2017-01-08T04:30:00Z,27.5500,-92.4900,122.0,14.2,359.0,99.0,'11111222,11111222,11144222' 
ADCP,ioos:station:wmo:42361:1,2017-01-08T05:30:00Z,27.5500,-92.4900,122.0,13.2,1.0,99.0,'11111222,11111222,11144222' 
ADCP,ioos:station:wmo:42361:1,2017-01-08T06:30:00Z,27.5500,-92.4900,122.0,12.0,8.0,99.0,'11111222,11111222,11144222' 
ADCP,ioos:station:wmo:42361:1,2017-01-08T07:30:00Z,27.5500,-92.4900,122.0,10.6,9.0,99.0,'11111222,11111222,11144222' 
ADCP,ioos:station:wmo:42361:1,2017-01-08T08:30:00Z,27.5500,-92.4900,122.0,9.5,13.0,99.0,'11111222,11111222,11144222' 
ADCP,ioos:station:wmo:42361:1,2017-01-08T09:30:00Z,27.5500,-92.4900,122.0,8.9,9.0,99.0,'11111222,11111222,11144222' 
ADCP,ioos:station:wmo:42361:1,2017-01-08T10:30:00Z,27.5500,-92.4900,122.0,8.9,8.0,99.0,'11111222,11111222,11144222' 
ADCP,ioos:station:wmo:42361:1,2017-01-08T11:30:00Z,27.5500,-92.4900,122.0,9.1,14.0,99.0,'11111222,11111222,11144222' 
ADCP,ioos:station:wmo:42361:1,2017-01-08T12:30:00Z,27.5500,-92.4900,122.0,9.8,15.0,99.0,'11111222,11111222,11144222' 
ADCP,ioos:station:wmo:42361:1,2017-01-08T13:30:00Z,27.5500,-92.4900,122.0,8.2,33.0,99.0,'11111222,11111222,11144222' 
ADCP,ioos:station:wmo:42361:1,2017-01-08T14:30:00Z,27.5500,-92.4900,122.0,9.0,27.0,99.0,'11111222,11111222,11144222' 
ADCP,ioos:station:wmo:42361:1,2017-01-08T15:30:00Z,27.5500,-92.4900,122.0,10.7,34.0,99.0,'11111222,11111222,11144222' 
ADCP,ioos:station:wmo:42361:1,2017-01-08T16:30:00Z,27.5500,-92.4900,122.0,8.8,50.0,99.0,'11111222,11111222,11144222' 
ADCP,ioos:station:wmo:42361:1,2017-01-08T17:30:00Z,27.5500,-92.4900,122.0,6.5,51.0,99.0,'11111222,11111222,11144222' 
ADCP,ioos:station:wmo:42361:1,2017-01-08T18:30:00Z,27.5500,-92.4900,122.0,6.2,56.0,99.0,'11111222,11111222,11144222' 
ADCP,ioos:station:wmo:42361:1,2017-01-08T19:30:00Z,27.5500,-92.4900,122.0,5.6,67.0,99.0,'11111222,11111222,11144222' 
ADCP,ioos:station:wmo:42361:1,2017-01-08T20:30:00Z,27.5500,-92.4900,122.0,5.4,68.0,99.0,'11111222,11111222,11144222' 
ADCP,ioos:station:wmo:42361:1,2017-01-08T21:30:00Z,27.5500,-92.4900,122.0,4.7,68.0,99.0,'11111222,11111222,11144222' 
ADCP,ioos:station:wmo:42361:1,2017-01-08T22:30:00Z,27.5500,-92.4900,122.0,2.1,69.0,99.0,'11111222,11111222,11144222' 
ADCP,ioos:station:wmo:42361:1,2017-01-08T23:30:00Z,27.5500,-92.4900,122.0,1.6,56.0,99.0,'11111222,11111222,11144222' 
ADCP,ioos:station:wmo:42361:1,2017-01-09T00:30:00Z,27.5500,-92.4900,122.0,1.3,16.0,99.0,'11111222,11111222,11144222' 
ADCP,ioos:station:wmo:42361:1,2017-01-09T02:30:00Z,27.5500,-92.4900,122.0,1.8,360.0,99.0,'11111222,11144222,11144222' 
ADCP,ioos:station:wmo:42361:1,2017-01-09T03:30:00Z,27.5500,-92.4900,122.0,1.2,313.0,99.0,'11111222,11111222,11144222' 
ADCP,ioos:station:wmo:42361:1,2017-01-09T04:30:00Z,27.5500,-92.4900,122.0,2.8,246.0,99.0,'11111222,11111222,11144222' 
ADCP,ioos:station:wmo:42361:1,2017-01-09T05:30:00Z,27.5500,-92.4900,122.0,2.5,256.0,99.0,'11111222,11111222,11144222' 
ADCP,ioos:station:wmo:42361:1,2017-01-09T06:30:00Z,27.5500,-92.4900,122.0,1.4,273.0,99.0,'11111222,11111222,11144222' 
ADCP,ioos:station:wmo:42361:1,2017-01-09T07:30:00Z,27.5500,-92.4900,122.0,0.7,295.0,99.0,'11111222,11111222,11144222' 
ADCP,ioos:station:wmo:42361:1,2017-01-09T08:30:00Z,27.5500,-92.4900,122.0,2.0,126.0,99.0,'11111222,11111222,11144222' 